Tracking 18843 objects as of 20-November-2017
HD Live streaming from Space Station
objects crossing your sky now

FENGYUN 1C DEB

Track FENGYUN 1C DEB now!
10-day predictions


NORAD ID: 30504
Int'l Code: 1999-025AHS
Perigee: 762.3 km
Apogee: 934.8 km
Inclination: 98.9 °
Period: 101.7 minutes
Semi major axis: 7219 km
RCS: 0.0107 m2 (small)
Launch date: May 10, 1999
Source: People's Republic of China (PRC)
Launch site: Taiyaun Space Center, China (TSC)

Note: This is SATELLITE DEBRIS
aabbcc
Your satellite tracking list
Your tracking list is empty




NASA's NSSDC Master Catalog

Two Line Element Set (TLE):
1 30504U 99025AHS 17323.73780274  .00000302  00000-0  16728-3 0  9993
2 30504  98.9421 275.2862 0119474 291.9900 185.8231 14.15276486557789
Source of the keplerian elements: AFSPC